| time (UTC) | temp F | wind direction | speed MPH | gust MPH | rain 1hr in | rain 24hr in | rain mn in | humidity % | barometer mb |
| 20260509204812 | 66 | 196 | 1.0 | 8.0 | 0.00 | 0.12 | 0.10 | 69 | 1007.7 |
| 20260509204314 | 65 | 178 | 0.0 | 3.0 | 0.00 | 0.12 | 0.10 | 67 | 1007.8 |
| 20260509203817 | 65 | 148 | 0.0 | 5.0 | 0.00 | 0.12 | 0.10 | 68 | 1007.9 |
| 20260509203318 | 64 | 213 | 0.0 | 5.0 | 0.00 | 0.12 | 0.10 | 68 | 1008.1 |
| 20260509202821 | 64 | 173 | 0.0 | 2.0 | 0.00 | 0.12 | 0.10 | 70 | 1007.9 |
| 20260509202325 | 64 | 180 | 0.0 | 2.0 | 0.00 | 0.12 | 0.10 | 68 | 1007.9 |
| 20260509201826 | 64 | 169 | 0.0 | 7.0 | 0.00 | 0.12 | 0.10 | 71 | 1008.1 |
| 20260509201327 | 65 | 235 | 1.0 | 7.0 | 0.00 | 0.12 | 0.10 | 69 | 1008.1 |
| 20260509200829 | 65 | 219 | 0.0 | 4.0 | 0.00 | 0.12 | 0.10 | 67 | 1008.1 |
| 20260509200351 | 66 | 198 | 0.0 | 4.0 | 0.00 | 0.12 | 0.10 | 69 | 1008.1 |
| 20260509195812 | 66 | 205 | 0.0 | 3.0 | 0.00 | 0.12 | 0.10 | 68 | 1008.2 |
| 20260509195336 | 65 | 186 | 0.0 | 8.0 | 0.00 | 0.12 | 0.10 | 72 | 1008.2 |
| 20260509194817 | 64 | 218 | 0.0 | 12.0 | 0.00 | 0.12 | 0.10 | 71 | 1008.3 |
| 20260509194318 | 64 | 255 | 1.0 | 12.0 | 0.00 | 0.12 | 0.10 | 72 | 1008.3 |
| 20260509193820 | 63 | 187 | 0.0 | 8.0 | 0.00 | 0.12 | 0.10 | 74 | 1008.4 |
| 20260509193320 | 62 | 189 | 1.0 | 8.0 | 0.00 | 0.12 | 0.10 | 73 | 1008.4 |
| 20260509192823 | 63 | 169 | 0.0 | 6.0 | 0.00 | 0.12 | 0.10 | 74 | 1008.4 |
| 20260509192326 | 63 | 223 | 0.0 | 10.0 | 0.00 | 0.12 | 0.10 | 76 | 1008.5 |
| 20260509191829 | 62 | 148 | 1.0 | 10.0 | 0.00 | 0.12 | 0.10 | 74 | 1008.5 |
| 20260509191332 | 63 | 205 | 0.0 | 1.0 | 0.00 | 0.12 | 0.10 | 75 | 1008.5 |
| 20260509190813 | 63 | 211 | 0.0 | 18.0 | 0.00 | 0.12 | 0.10 | 75 | 1008.5 |
| 20260509190318 | 62 | 184 | 2.0 | 18.0 | 0.00 | 0.12 | 0.10 | 76 | 1008.6 |
| 20260509185821 | 62 | 186 | 0.0 | 5.0 | 0.00 | 0.12 | 0.10 | 77 | 1008.8 |
| 20260509185342 | 61 | 166 | 0.0 | 2.0 | 0.00 | 0.12 | 0.10 | 78 | 1008.8 |
| 20260509184821 | 61 | 186 | 0.0 | 3.0 | 0.00 | 0.12 | 0.10 | 80 | 1008.8 |
| 20260509184324 | 61 | 182 | 0.0 | 4.0 | 0.00 | 0.12 | 0.10 | 78 | 1008.8 |
| 20260509183827 | 61 | 235 | 0.0 | 12.0 | 0.00 | 0.12 | 0.10 | 77 | 1008.8 |
| 20260509183329 | 61 | 252 | 2.0 | 12.0 | 0.00 | 0.12 | 0.10 | 78 | 1008.8 |
| 20260509182832 | 60 | 165 | 0.0 | 4.0 | 0.00 | 0.12 | 0.10 | 80 | 1009.1 |
| 20260509182315 | 60 | 252 | 0.0 | 4.0 | 0.00 | 0.12 | 0.10 | 77 | 1009.1 |
| 20260509144313 | 52 | 207 | 0.0 | 0.0 | 0.01 | 0.11 | 0.09 | 95 | 1008.6 |
| 20260509143816 | 52 | 174 | 0.0 | 0.0 | 0.01 | 0.11 | 0.09 | 95 | 1008.7 |
| 20260509143338 | 52 | 179 | 0.0 | 0.0 | 0.01 | 0.11 | 0.09 | 95 | 1008.8 |
| 20260509142818 | 52 | 189 | 0.0 | 6.0 | 0.01 | 0.11 | 0.09 | 95 | 1008.7 |
| 20260509142319 | 52 | 157 | 1.0 | 7.0 | 0.01 | 0.11 | 0.09 | 95 | 1008.7 |
| 20260509141824 | 52 | 173 | 0.0 | 7.0 | 0.00 | 0.10 | 0.08 | 95 | 1008.7 |
| 20260509141328 | 52 | 217 | 0.0 | 3.0 | 0.00 | 0.10 | 0.08 | 95 | 1008.8 |
| 20260509140846 | 52 | 209 | 0.0 | 4.0 | 0.00 | 0.10 | 0.08 | 95 | 1008.9 |
| 20260509140326 | 52 | 168 | 0.0 | 6.0 | 0.00 | 0.10 | 0.08 | 95 | 1008.9 |
| 20260509135829 | 52 | 199 | 0.0 | 6.0 | 0.00 | 0.10 | 0.08 | 95 | 1008.8 |
| 20260509135332 | 52 | 283 | 0.0 | 6.0 | 0.00 | 0.10 | 0.08 | 95 | 1008.8 |
| 20260509134814 | 52 | 177 | 1.0 | 6.0 | 0.00 | 0.10 | 0.08 | 95 | 1008.8 |
| 20260509134346 | 51 | 154 | 0.0 | 4.0 | 0.00 | 0.10 | 0.08 | 95 | 1008.9 |
| 20260509133829 | 51 | 177 | 0.0 | 7.0 | 0.01 | 0.10 | 0.08 | 95 | 1008.8 |
| 20260509133351 | 51 | 210 | 0.0 | 8.0 | 0.01 | 0.10 | 0.08 | 95 | 1008.9 |
| 20260509132833 | 51 | 172 | 0.0 | 9.0 | 0.01 | 0.10 | 0.08 | 95 | 1008.9 |
| 20260509132315 | 51 | 140 | 0.0 | 9.0 | 0.01 | 0.10 | 0.08 | 95 | 1009.0 |
| 20260509131820 | 51 | 180 | 0.0 | 8.0 | 0.01 | 0.10 | 0.08 | 95 | 1009.0 |
| 20260509131323 | 51 | 177 | 1.0 | 8.0 | 0.01 | 0.10 | 0.08 | 95 | 1009.1 |
| 20260509130824 | 51 | 186 | 0.0 | 5.0 | 0.02 | 0.10 | 0.08 | 95 | 1009.0 |
| 20260509130324 | 51 | 197 | 0.0 | 2.0 | 0.02 | 0.10 | 0.08 | 95 | 1009.0 |
| 20260509125827 | 51 | 175 | 0.0 | 5.0 | 0.02 | 0.10 | 0.08 | 95 | 1009.0 |
| 20260509125330 | 51 | 152 | 0.0 | 5.0 | 0.02 | 0.10 | 0.08 | 95 | 1009.1 |
| 20260509124833 | 51 | 175 | 0.0 | 4.0 | 0.02 | 0.10 | 0.08 | 95 | 1009.1 |
| 20260509124318 | 51 | 225 | 0.0 | 4.0 | 0.03 | 0.10 | 0.08 | 95 | 1009.2 |
| 20260509123824 | 51 | 160 | 0.0 | 5.0 | 0.02 | 0.09 | 0.07 | 95 | 1009.2 |
| 20260509123712 | 51 | 192 | 0.0 | 5.0 | 0.02 | 0.09 | 0.07 | 95 | 1009.3 |
| 20260509045315 | 50 | 166 | 0.0 | 0.0 | 0.00 | 0.02 | 0.00 | 92 | 1010.1 |
| 20260509044818 | 50 | 166 | 0.0 | 0.0 | 0.00 | 0.02 | 0.00 | 92 | 1010.1 |
| 20260509044321 | 50 | 167 | 0.0 | 0.0 | 0.00 | 0.02 | 0.00 | 92 | 1010.1 |
| 20260509043822 | 50 | 167 | 0.0 | 0.0 | 0.00 | 0.02 | 0.00 | 92 | 1010.1 |
| 20260509043323 | 50 | 167 | 0.0 | 0.0 | 0.00 | 0.02 | 0.00 | 92 | 1010.2 |
| 20260509042846 | 50 | 167 | 0.0 | 0.0 | 0.00 | 0.02 | 0.00 | 92 | 1010.2 |
| 20260509042328 | 50 | 167 | 0.0 | 0.0 | 0.00 | 0.02 | 0.00 | 92 | 1010.3 |
| 20260509041832 | 50 | 167 | 0.0 | 0.0 | 0.00 | 0.02 | 0.00 | 92 | 1010.4 |
| 20260509041315 | 50 | 167 | 0.0 | 0.0 | 0.00 | 0.02 | 0.00 | 91 | 1010.4 |
| 20260509040818 | 50 | 167 | 0.0 | 0.0 | 0.00 | 0.02 | 0.00 | 91 | 1010.4 |
| 20260509040336 | 50 | 167 | 0.0 | 0.0 | 0.00 | 0.02 | 0.02 | 91 | 1010.5 |
| 20260509035832 | 50 | 167 | 0.0 | 0.0 | 0.00 | 0.02 | 0.02 | 91 | 1011.0 |
| 20260509035314 | 50 | 167 | 0.0 | 0.0 | 0.00 | 0.02 | 0.02 | 91 | 1010.6 |
| 20260509034818 | 50 | 167 | 0.0 | 0.0 | 0.00 | 0.02 | 0.02 | 91 | 1010.7 |
| 20260509034321 | 50 | 167 | 0.0 | 0.0 | 0.00 | 0.02 | 0.02 | 90 | 1011.0 |
| 20260509033824 | 50 | 167 | 0.0 | 0.0 | 0.01 | 0.02 | 0.02 | 90 | 1011.0 |
| 20260509033328 | 50 | 167 | 0.0 | 0.0 | 0.01 | 0.02 | 0.02 | 90 | 1011.0 |
| 20260509032828 | 50 | 167 | 0.0 | 0.0 | 0.01 | 0.02 | 0.02 | 90 | 1011.2 |
| 20260509032329 | 50 | 167 | 0.0 | 0.0 | 0.01 | 0.02 | 0.02 | 90 | 1011.3 |
| 20260509031852 | 50 | 167 | 0.0 | 0.0 | 0.01 | 0.02 | 0.02 | 89 | 1011.3 |
| 20260509031314 | 50 | 167 | 0.0 | 0.0 | 0.02 | 0.02 | 0.02 | 89 | 1011.3 |
| 20260509030819 | 50 | 167 | 0.0 | 0.0 | 0.02 | 0.02 | 0.02 | 89 | 1011.3 |
| 20260509030321 | 51 | 167 | 0.0 | 0.0 | 0.02 | 0.02 | 0.02 | 88 | 1011.6 |
| 20260509025823 | 51 | 167 | 0.0 | 0.0 | 0.02 | 0.02 | 0.02 | 87 | 1011.7 |
| 20260509025326 | 51 | 167 | 0.0 | 0.0 | 0.02 | 0.02 | 0.02 | 87 | 1011.6 |
| 20260509024829 | 51 | 167 | 0.0 | 0.0 | 0.02 | 0.02 | 0.02 | 85 | 1011.7 |
| 20260509024348 | 51 | 167 | 0.0 | 0.0 | 0.02 | 0.02 | 0.02 | 84 | 1011.6 |
| 20260509023849 | 52 | 167 | 0.0 | 0.0 | 0.01 | 0.01 | 0.01 | 84 | 1011.6 |
| 20260509023330 | 52 | 167 | 0.0 | 0.0 | 0.01 | 0.01 | 0.01 | 83 | 1011.7 |
| 20260509022832 | 52 | 167 | 0.0 | 0.0 | 0.01 | 0.01 | 0.01 | 83 | 1011.8 |
| 20260509022314 | 52 | 167 | 0.0 | 0.0 | 0.01 | 0.01 | 0.01 | 82 | 1011.7 |
| 20260509021837 | 52 | 167 | 0.0 | 0.0 | 0.01 | 0.01 | 0.01 | 81 | 1011.7 |
| 20260509021335 | 52 | 167 | 0.0 | 0.0 | 0.00 | 0.00 | 0.00 | 81 | 1011.8 |
| 20260509020836 | 53 | 167 | 0.0 | 0.0 | 0.00 | 0.00 | 0.00 | 82 | 1011.7 |
| 20260509020340 | 53 | 167 | 0.0 | 0.0 | 0.00 | 0.00 | 0.00 | 81 | 1011.7 |
| 20260509015903 | 53 | 162 | 0.0 | 0.0 | 0.00 | 0.00 | 0.00 | 80 | 1011.7 |